Location: G�kdere
(37.0328°N, 30.9000°E)
Time: 22:05:35
(UTC+00:00)

Cosmos 1666 - Pass Details

Date: 03 March 2021
Orbit: 497 x 518 km, 82.5° (Epoch: 18 April)

Event Time Altitude Azimuth Distance (km) Brightness Sun altitude
Rises 16:50:40 0° 164° (SSE) 2,568 6.1 -12.4°
Reaches altitude 10° 16:52:56 10° 154° (SSE) 1,691 5.0 -12.8°
Maximum altitude 16:56:13 31° 91° (E) 901 3.3 -13.5°
Drops below altitude 10° 16:59:31 10° 29° (NNE) 1,706 5.1 -14.2°
Sets 17:01:48 0° 19° (NNE) 2,597 6.1 -14.6°
